This demonstration page uses our WeatherBlox Daily Observations layout. Learn more.

Left ArrowRight Arrow

36.17497, -115.13722

Hourly Observations for March 26, 2015

Temp ( °F °C ) Dew Point ( °F °C ) Humidity (%) Winds ( mph kmh ) Pressure ( in mb ) Visibility ( mi km ) Precip ( " mm )
12:53 am 00:53 Clear 63 17.2 18 -7.8 17 17 S 6 9 30.22 1023 10 16 N/A
1:53 am 01:53 Clear 62 16.7 18 -7.8 18 18 VRB 5 7 30.22 1024 10 16 N/A
2:53 am 02:53 Clear 62 16.7 18 -7.8 18 18 SW 3 6 30.22 1023 10 16 N/A
3:53 am 03:53 Clear 58 14.4 23 -5 26 26 WNW 5 7 30.22 1023 10 16 N/A
4:53 am 04:53 Clear 58 14.4 23 -5 26 26 WNW 7 11 30.24 1024 10 16 N/A
5:53 am 05:53 Clear 58 14.4 22 -5.6 25 25 WNW 3 6 30.25 1024 10 16 N/A
6:53 am 06:53 Sunny 58 14.4 22 -5.6 25 25 N N/A 30.27 1025 10 16 N/A
7:53 am 07:53 Sunny 62 16.7 22 -5.6 21 21 N 8 13 30.28 1025 10 16 N/A
8:53 am 08:53 Sunny 67 19.4 20 -6.7 17 17 N 14 22 30.27 1025 10 16 N/A
9:53 am 09:53 Sunny 70 21.1 19 -7.2 14 14 N 8 13 30.29 1026 10 16 N/A
10:53 am 10:53 Sunny 72 22.2 18 -7.8 13 13 N N/A 30.27 1025 10 16 N/A
11:53 am 11:53 Sunny 73 22.8 18 -7.8 12 12 N N/A 30.26 1025 10 16 N/A
12:53 pm 12:53 Sunny 75 23.9 19 -7.2 12 12 N N/A 30.24 1024 10 16 N/A
1:53 pm 13:53 Sunny 77 25 19 -7.2 11 11 ESE 3 6 30.20 1023 10 16 N/A
2:53 pm 14:53 Sunny 79 26.1 19 -7.2 10 10 NE 6 9 30.16 1022 10 16 N/A
3:53 pm 15:53 Sunny 78 25.6 19 -7.2 11 11 N N/A 30.14 1021 10 16 N/A
4:53 pm 16:53 Sunny 79 26.1 19 -7.2 10 10 E 13 20 30.14 1021 10 16 N/A
5:53 pm 17:53 Sunny 78 25.6 20 -6.7 11 11 ESE 8 13 30.13 1020 10 16 N/A
6:53 pm 18:53 Sunny 75 23.9 19 -7.2 12 12 E 9 15 30.14 1021 10 16 N/A
7:53 pm 19:53 Clear 74 23.3 20 -6.7 13 13 N N/A 30.15 1021 10 16 N/A
8:53 pm 20:53 Clear 71 21.7 24 -4.4 17 17 W 6 9 30.16 1021 10 16 N/A
9:53 pm 21:53 Clear 69 20.6 26 -3.3 20 20 WNW 7 11 30.16 1021 10 16 N/A
10:53 pm 22:53 Clear 66 18.9 25 -3.9 21 21 WNW 3 6 30.17 1022 10 16 N/A
11:53 pm 23:53 Clear 65 18.3 27 -2.8 24 24 S 3 6 30.18 1022 10 16 N/A

Powered by AerisWeather